When you browse on this site, cookies collect data to enhance your experience and personalize the content and advertising you see.
Visit our Privacy Policy to learn more. By continuing to use the site, you agree to this use of cookies and data.
  • In Spain
  • List of Countries
  • For 7 days
  • Water Temperature
  • Weather Map
  • Weather Widgets
  • user-avatar
    Login

    Hourly Weather Chelmsford

    Today, 15 September, Sunday

    Time Temperature Precipitation Wind Pressure Humidity
    00:00 +15°C° 0 mm 2 mps 767 mmHg 68%
    01:00 +14°C° 0 mm 3 mps 766 mmHg 67%
    02:00 +13°C° 0 mm 3 mps 766 mmHg 67%
    03:00 +13°C° 0 mm 3 mps 765 mmHg 66%
    04:00 +13°C° 0 mm 3 mps 765 mmHg 68%
    05:00 +12°C° 0 mm 3 mps 765 mmHg 70%
    06:00 +12°C° 0 mm 3 mps 765 mmHg 72%
    07:00 +14°C° 0 mm 3 mps 765 mmHg 68%
    08:00 +17°C° 0 mm 3 mps 765 mmHg 63%
    09:00 +19°C° 0 mm 3 mps 765 mmHg 58%
    10:00 +20°C° 0 mm 3 mps 765 mmHg 57%
    11:00 +22°C° 0 mm 3 mps 765 mmHg 55%
    12:00 +24°C° 0 mm 3 mps 765 mmHg 54%
    13:00 +25°C° 0 mm 3 mps 764 mmHg 55%
    14:00 +25°C° 0 mm 3 mps 764 mmHg 55%
    15:00 +25°C° 0 mm 3 mps 764 mmHg 55%
    16:00 +24°C° 0 mm 3 mps 764 mmHg 60%
    17:00 +23°C° 0 mm 2 mps 764 mmHg 65%
    18:00 +21°C° 0 mm 2 mps 763 mmHg 69%
    19:00 +20°C° 0 mm 2 mps 763 mmHg 73%
    20:00 +20°C° 0 mm 2 mps 764 mmHg 77%
    21:00 +19°C° 0 mm 2 mps 764 mmHg 80%
    22:00 +18°C° 0 mm 2 mps 763 mmHg 83%
    23:00 +18°C° 0 mm 2 mps 763 mmHg 85%

    Tomorrow, 16 September, Monday

    Time Temperature Precipitation Wind Pressure Humidity
    00:00 +18°C° 0 mm 2 mps 763 mmHg 87%
    01:00 +18°C° 0 mm 2 mps 763 mmHg 87%
    02:00 +17°C° 0 mm 2 mps 762 mmHg 86%
    03:00 +18°C° 0 mm 1 mps 762 mmHg 86%
    04:00 +17°C° 0 mm 2 mps 762 mmHg 86%
    05:00 +17°C° 0 mm 2 mps 762 mmHg 87%
    06:00 +17°C° 0 mm 2 mps 761 mmHg 87%
    07:00 +17°C° 0 mm 3 mps 762 mmHg 85%
    08:00 +18°C° 0 mm 3 mps 762 mmHg 84%
    09:00 +18°C° 0 mm 3 mps 762 mmHg 82%
    10:00 +18°C° 0 mm 3 mps 762 mmHg 81%
    11:00 +18°C° 0 mm 3 mps 762 mmHg 80%
    12:00 +19°C° 0 mm 3 mps 762 mmHg 79%
    13:00 +19°C° 0 mm 3 mps 762 mmHg 78%
    14:00 +19°C° 0 mm 3 mps 762 mmHg 76%
    15:00 +19°C° 0 mm 3 mps 762 mmHg 74%
    16:00 +18°C° 0 mm 3 mps 762 mmHg 74%
    17:00 +18°C° 0 mm 3 mps 763 mmHg 74%
    18:00 +17°C° 0 mm 4 mps 763 mmHg 74%
    19:00 +15°C° 0 mm 4 mps 763 mmHg 74%
    20:00 +16°C° 0 mm 3 mps 764 mmHg 73%
    21:00 +14°C° 0 mm 3 mps 764 mmHg 73%
    22:00 +13°C° 0 mm 3 mps 764 mmHg 76%
    23:00 +12°C° 0 mm 3 mps 765 mmHg 79%

    Day after tomorrow, 17 September, Tuesday

    Time Temperature Precipitation Wind Pressure Humidity
    00:00 +12°C° 0 mm 2 mps 765 mmHg 82%
    01:00 +12°C° 0 mm 2 mps 765 mmHg 83%
    02:00 +10°C° 0 mm 2 mps 765 mmHg 84%
    03:00 +10°C° 0 mm 2 mps 765 mmHg 85%
    04:00 +9°C° 0 mm 2 mps 765 mmHg 86%
    05:00 +9°C° 0 mm 2 mps 765 mmHg 87%
    06:00 +9°C° 0 mm 2 mps 765 mmHg 88%
    07:00 +10°C° 0 mm 3 mps 766 mmHg 79%
    08:00 +12°C° 0 mm 3 mps 766 mmHg 70%
    09:00 +13°C° 0 mm 3 mps 766 mmHg 60%
    10:00 +16°C° 0 mm 3 mps 766 mmHg 54%
    11:00 +17°C° 0 mm 3 mps 766 mmHg 49%
    12:00 +18°C° 0 mm 3 mps 766 mmHg 43%
    13:00 +18°C° 0 mm 3 mps 766 mmHg 43%
    14:00 +18°C° 0 mm 4 mps 766 mmHg 42%
    15:00 +19°C° 0 mm 4 mps 765 mmHg 42%
    16:00 +17°C° 0 mm 3 mps 765 mmHg 48%
    17:00 +16°C° 0 mm 3 mps 765 mmHg 53%
    18:00 +14°C° 0 mm 3 mps 765 mmHg 59%
    19:00 +13°C° 0 mm 3 mps 766 mmHg 64%
    20:00 +12°C° 0 mm 3 mps 766 mmHg 69%
    21:00 +11°C° 0 mm 3 mps 767 mmHg 73%
    22:00 +10°C° 0 mm 3 mps 767 mmHg 74%
    23:00 +10°C° 0 mm 3 mps 767 mmHg 75%

    18 September, Wednesday

    Time Temperature Precipitation Wind Pressure Humidity
    00:00 +9°C° 0 mm 2 mps 767 mmHg 75%
    01:00 +9°C° 0 mm 2 mps 767 mmHg 75%
    02:00 +9°C° 0 mm 2 mps 767 mmHg 76%
    03:00 +9°C° 0 mm 2 mps 767 mmHg 76%
    04:00 +9°C° 0 mm 2 mps 767 mmHg 76%
    05:00 +9°C° 0 mm 2 mps 767 mmHg 77%
    06:00 +9°C° 0 mm 2 mps 767 mmHg 77%
    07:00 +10°C° 0 mm 2 mps 768 mmHg 72%
    08:00 +12°C° 0 mm 2 mps 768 mmHg 66%
    09:00 +13°C° 0 mm 2 mps 768 mmHg 60%
    10:00 +14°C° 0 mm 2 mps 768 mmHg 57%
    11:00 +16°C° 0 mm 2 mps 768 mmHg 54%
    12:00 +18°C° 0 mm 1 mps 768 mmHg 51%
    13:00 +17°C° 0 mm 2 mps 768 mmHg 51%
    14:00 +17°C° 0 mm 2 mps 768 mmHg 50%
    15:00 +18°C° 0 mm 2 mps 767 mmHg 50%
    16:00 +17°C° 0 mm 2 mps 768 mmHg 54%
    17:00 +16°C° 0 mm 2 mps 768 mmHg 59%
    18:00 +15°C° 0 mm 2 mps 768 mmHg 63%
    19:00 +14°C° 0 mm 2 mps 768 mmHg 66%
    20:00 +14°C° 0 mm 1 mps 769 mmHg 69%
    21:00 +13°C° 0 mm 1 mps 769 mmHg 72%
    22:00 +13°C° 0 mm 1 mps 769 mmHg 72%
    23:00 +13°C° 0 mm 1 mps 769 mmHg 71%

    19 September, Thursday

    Time Temperature Precipitation Wind Pressure Humidity
    00:00 +14°C° 0 mm 1 mps 769 mmHg 71%
    01:00 +13°C° 0 mm 2 mps 769 mmHg 75%
    02:00 +11°C° 0 mm 3 mps 769 mmHg 79%
    03:00 +11°C° 0 mm 3 mps 769 mmHg 83%
    04:00 +10°C° 0 mm 3 mps 770 mmHg 84%
    05:00 +10°C° 0 mm 3 mps 770 mmHg 86%
    06:00 +10°C° 0 mm 3 mps 770 mmHg 88%
    07:00 +11°C° 0 mm 4 mps 770 mmHg 78%
    08:00 +13°C° 0 mm 4 mps 771 mmHg 68%
    09:00 +14°C° 0 mm 5 mps 771 mmHg 58%
    10:00 +15°C° 0 mm 4 mps 771 mmHg 53%
    11:00 +17°C° 0 mm 4 mps 771 mmHg 48%
    12:00 +17°C° 0 mm 4 mps 771 mmHg 43%
    13:00 +17°C° 0 mm 4 mps 771 mmHg 44%
    14:00 +17°C° 0 mm 4 mps 771 mmHg 45%
    15:00 +17°C° 0 mm 4 mps 770 mmHg 46%
    16:00 +15°C° 0 mm 4 mps 770 mmHg 51%
    17:00 +14°C° 0 mm 4 mps 770 mmHg 56%
    18:00 +13°C° 0 mm 4 mps 771 mmHg 62%
    19:00 +12°C° 0 mm 4 mps 771 mmHg 65%
    20:00 +11°C° 0 mm 4 mps 771 mmHg 68%
    21:00 +10°C° 0 mm 4 mps 772 mmHg 71%
    22:00 +10°C° 0 mm 4 mps 771 mmHg 72%
    23:00 +10°C° 0 mm 3 mps 771 mmHg 74%

    20 September, Friday

    Time Temperature Precipitation Wind Pressure Humidity
    00:00 +10°C° 0 mm 3 mps 771 mmHg 75%
    01:00 +9°C° 0 mm 3 mps 771 mmHg 76%
    02:00 +9°C° 0 mm 3 mps 771 mmHg 77%
    03:00 +9°C° 0 mm 3 mps 771 mmHg 79%
    04:00 +9°C° 0 mm 3 mps 771 mmHg 79%
    05:00 +9°C° 0 mm 3 mps 771 mmHg 80%
    06:00 +9°C° 0 mm 3 mps 770 mmHg 80%
    07:00 +11°C° 0 mm 4 mps 770 mmHg 74%
    08:00 +13°C° 0 mm 4 mps 770 mmHg 67%
    09:00 +14°C° 0 mm 5 mps 770 mmHg 60%
    10:00 +15°C° 0 mm 5 mps 770 mmHg 58%
    11:00 +15°C° 0 mm 5 mps 770 mmHg 57%
    12:00 +16°C° 0 mm 5 mps 770 mmHg 55%
    13:00 +16°C° 0 mm 6 mps 769 mmHg 56%
    14:00 +16°C° 0 mm 6 mps 768 mmHg 57%
    15:00 +15°C° 0 mm 6 mps 768 mmHg 57%
    16:00 +14°C° 0 mm 6 mps 767 mmHg 61%
    17:00 +13°C° 0 mm 5 mps 767 mmHg 65%
    18:00 +12°C° 0 mm 5 mps 766 mmHg 69%
    19:00 +12°C° 0 mm 5 mps 766 mmHg 71%
    20:00 +12°C° 0 mm 5 mps 766 mmHg 73%
    21:00 +12°C° 0 mm 5 mps 766 mmHg 75%
    22:00 +12°C° 0 mm 5 mps 766 mmHg 74%
    23:00 +13°C° 0 mm 5 mps 765 mmHg 72%
    Show more